Showing default

ICEYE-X64, 67373

Orbit data source: Space-Track

ICEYE-X64, 67373 is a Finnish payload satellite in SSO that was launched on Sun, 11 Jan 2026 UTC via an FALCON 9 launch vehicle from the Air Force Western Test Range (AFWTR). Payload-class satellites include a variety of spacecraft equipped with specific instruments for various scientific and technological missions. These include communications satellites like Starlink; space stations such as the ISS; scientific satellites like the Hubble; Earth observation satellites from companies like Planet Labs, Umbra, and HawkEye 360; GPS; miniature CubeSats for education and research; and military/defense satellites.

Loading next visibility...
Identifier
67373, 2026-004L
Orbit
SSO
Country
Flag of FIFI / FIN
Related business
Manufacturer
ICEYE
Mission
Operational spacecraft
Bus & Motor
ICEYE, Unknown motor
Mass
120 kg wet, 120 kg dry
Launch date (UTC)
2026-01-11 (3 months ago)
Launch vehicle
FALCON 9
Launch site
Air Force Western Test Range (AFWTR)
Object type
Payload
Rocket body
Debris
Shape & HBR
Unknown shape, 2.4 m
Radar Cross Section
RCS unknown

Expand to show TLE details & history
Last TLE update: 6 hours ago

TLE from 6 hours ago
0 ICEYE-X64
1 67373U 26004L   26095.55727094  .00003634  00000-0  40413-3 0  9990
2 67373  97.8022  95.3052 0006681  29.5648 330.5945 14.87757757 12498
Epoch: 2026-04-05T13:22Z
TLE epoch observation values (Epoch: 2026-04-05T13:22:28.209Z)
Latitude
-0.00001°
Longitude
60.82668°
Altitude
603.914 km
Speed
7.56 km/s
True Right ascension
06h 21m 13s
True Declination
0° 00' 00"
Sunlit
Object was in daylight at epoch
Visualization orbit readout
Latitude
Unknown
Longitude
Unknown
Altitude
Unknown
Speed
Unknown
Apparent Right ascension
Unknown
Apparent Declination
Unknown
Sunlit
N/A
Visualization observer readout
Local Sidereal Time
01:00:38
Azimuth
Unknown
Elevation
Unknown
Doppler factor
Unknown
Orbital elements
Apogee altitude
606.633 km
Perigee altitude
597.306 km
Semi-major axis
6,980.106 km
Eccentricity
0.00067
Inclination
97.8022°
RAAN
95.3052°
Arg. of periapsis
29.5648°
True anomaly
330.55688°
Mean anomaly
330.5945°
Eccentric anomaly
330.57569°
Mean motion
3.72178 °/min
Orbital period
96.73 mins
BSTAR
0.00040413
Loading maneuver chart data...
Computing Atmospheric mass density...
Loading historical data...
Loading historical data...
Loading historical data...
Loading historical data...
Loading historical data...
Loading historical data...
Loading historical data...

Documentation

Showing up to 5 results
|